GFSSW_500_rhum_102.txt.gz
RH
43 47 54 56 54 56 57 54 52 53 53 53 52 51 47 46 58 58 50 45 43 41 42 37 30 28 25 21 19 17 10 8 15 22 26 29 20 11 11 9 11 14 14 19 29
48 47 48 51 55 58 58 56 54 55 51 49 50 55 56 54 55 61 61 61 56 52 48 46 42 31 25 23 22 19 14 11 22 28 31 29 19 14 11 10 12 13 18 16 26
38 42 51 53 58 63 72 66 63 57 54 51 48 51 57 55 60 63 58 62 66 61 61 57 52 46 44 36 27 26 21 22 26 35 31 27 26 20 14 13 17 15 14 16 24
40 38 39 40 54 62 72 72 73 66 60 57 53 55 54 56 54 65 65 58 64 60 54 63 65 56 48 46 44 34 25 24 28 33 29 27 29 20 16 17 23 16 22 19 27
40 38 38 40 39 43 52 62 68 71 67 60 59 58 61 55 56 77 71 71 68 66 60 55 58 55 44 47 45 41 36 27 26 27 26 29 27 27 18 26 27 21 24 29 36
48 47 41 40 46 49 54 55 57 67 63 66 62 62 65 58 88 84 69 79 80 78 68 61 54 55 46 42 43 41 40 40 37 34 30 24 25 24 24 37 24 25 33 43 48
13 12 13 18 28 31 30 37 41 48 54 64 65 58 57 66 94 88 84 79 82 82 79 70 63 55 46 43 45 44 40 37 38 44 39 34 24 24 38 42 35 40 45 46 40
14 15 13 8 9 7 3 4 6 8 35 45 52 58 48 76 93 98 93 93 88 83 80 80 72 58 51 50 47 45 40 35 31 32 32 47 30 31 33 38 30 44 34 29 31
6 3 4 4 4 3 4 4 2 2 2 10 28 41 39 74 90 95 94 100 96 93 97 95 85 66 61 56 52 44 42 39 31 27 26 30 22 30 39 34 30 25 22 24 24
4 3 3 2 2 3 3 3 2 2 2 2 4 14 30 50 86 98 95 98 98 97 97 94 93 71 62 57 46 47 43 36 30 29 28 25 18 20 24 20 18 22 24 26 27
2 2 2 2 2 1 1 2 2 2 2 2 2 3 12 33 85 96 96 98 100 98 93 97 89 72 67 57 50 42 36 32 29 27 29 25 24 20 18 16 16 16 14 17 26
2 2 2 2 2 2 2 1 2 2 2 2 2 2 6 47 50 100 100 100 98 98 98 97 77 83 61 47 42 36 34 34 32 32 34 34 34 20 16 13 12 11 12 10 14
5 6 5 3 2 2 2 2 2 3 2 2 2 2 17 67 70 100 98 100 99 98 97 98 94 70 49 45 40 36 34 32 29 33 35 41 31 21 18 15 11 9 10 14 10
20 9 5 5 4 8 20 20 4 4 3 2 2 7 37 88 64 100 88 98 94 99 99 92 93 75 37 36 34 37 34 31 26 29 33 36 28 24 16 13 12 13 10 5 5
12 6 7 12 21 98 100 87 91 20 6 5 6 14 33 57 64 78 97 89 81 99 99 81 74 52 50 29 27 27 27 28 28 28 33 37 34 26 15 12 17 16 12 9 6
6 6 10 26 36 74 90 83 100 100 23 24 24 22 52 55 69 70 74 92 84 88 95 75 53 46 43 18 20 21 21 23 23 23 24 25 30 23 25 18 14 11 11 7 5
6 7 13 29 34 50 65 100 93 93 35 37 43 43 48 68 71 73 66 68 45 49 46 28 30 23 23 20 14 11 12 16 17 15 14 15 15 13 14 15 15 17 14 11 7
7 7 16 33 32 32 45 100 100 99 38 37 35 42 52 54 73 93 80 97 75 41 53 52 31 13 14 16 15 16 14 12 13 12 12 16 14 13 12 11 11 11 11 9 6
9 8 19 29 30 26 47 83 100 62 27 30 37 39 78 73 54 50 56 51 73 62 30 25 22 16 15 14 14 13 14 16 18 16 12 9 6 6 7 7 8 10 7 4 4
9 9 22 32 31 22 21 28 64 26 22 23 33 36 37 78 73 53 46 43 41 52 49 35 26 18 13 10 9 10 15 17 14 13 13 9 8 8 9 11 11 8 10 15 10
9 10 24 34 30 26 21 20 24 19 18 22 18 19 37 35 51 57 52 43 26 17 14 12 12 14 9 9 12 14 12 13 18 18 20 12 8 10 10 12 18 13 25 41 25
12 12 25 36 29 29 24 26 26 21 16 15 15 18 16 22 27 31 28 28 41 34 20 14 10 9 20 16 12 11 13 20 15 9 17 27 7 16 23 27 38 32 39 62 76
14 12 24 37 30 28 24 24 32 22 19 22 20 16 14 18 34 25 32 42 46 44 35 32 19 13 16 17 12 14 14 26 20 15 16 30 24 67 71 60 56 61 62 71 99
15 14 23 35 29 26 22 22 23 23 20 31 28 24 16 15 15 23 43 32 27 32 27 35 55 46 61 82 56 33 26 27 40 66 57 65 76 88 69 69 74 97 94 87 98
16 15 18 26 27 24 20 20 29 36 49 58 63 58 48 44 37 22 15 24 38 34 41 44 71 50 81 88 78 90 82 42 50 84 79 88 84 91 80 82 91 99 96 95 98
36 16 18 16 18 18 21 24 50 77 96 100 88 70 54 33 24 20 26 20 16 77 48 58 55 20 44 61 64 81 100 83 81 87 100 100 89 92 100 94 100 97 98 98 98
48 21 23 24 22 24 30 29 54 76 98 100 92 82 61 87 97 56 85 36 38 97 100 100 100 90 65 75 88 98 100 84 82 76 61 54 90 94 100 100 100 99 98 95 98

GFSSW_500_rhum_105.txt.gz
RH
40 40 41 39 37 36 40 42 42 43 46 43 46 48 54 50 50 54 56 57 55 46 43 39 36 34 32 30 26 24 17 12 14 20 29 26 20 16 13 12 12 12 11 16 18
39 34 33 38 41 41 42 42 42 43 45 51 51 53 55 54 52 54 60 66 68 60 56 50 51 48 42 38 32 27 24 21 21 27 33 26 19 15 13 14 14 15 14 16 21
31 29 28 30 35 35 32 31 40 38 44 49 54 56 56 56 56 60 63 68 72 70 66 66 59 54 51 46 40 32 28 28 26 32 30 28 23 20 15 14 18 19 18 16 22
28 26 25 26 26 29 27 27 28 29 30 40 42 51 58 64 57 64 78 72 75 75 68 68 69 65 58 56 51 46 40 38 33 37 31 28 28 22 18 19 24 23 22 22 26
29 28 28 33 33 32 32 32 31 29 30 33 34 37 44 52 61 75 74 83 84 84 77 67 70 73 60 56 61 57 52 46 43 36 29 28 26 27 22 26 33 28 26 28 29
35 37 38 34 31 31 28 24 28 34 37 35 35 35 37 31 70 79 72 84 91 88 90 88 69 75 69 59 54 50 48 42 42 43 35 28 26 25 25 39 39 37 35 33 32
39 36 33 29 26 25 27 29 22 17 13 22 22 24 26 28 52 70 79 80 91 99 96 97 96 79 73 69 61 52 46 45 41 41 43 41 39 38 38 41 38 40 38 40 42
36 38 37 30 25 24 24 18 11 6 5 5 10 17 20 18 31 53 90 76 80 87 97 97 96 95 84 79 70 57 50 42 40 42 42 43 28 41 46 46 37 42 52 49 37
14 10 9 10 9 9 9 10 10 8 7 4 4 5 10 11 5 28 54 79 97 92 99 97 93 94 91 90 79 61 50 45 46 45 44 41 35 34 39 42 48 39 40 39 33
10 8 8 7 6 4 4 3 3 3 4 4 4 4 5 5 5 5 28 59 87 98 99 96 94 92 86 87 64 69 62 56 56 53 51 45 37 30 28 26 33 45 42 37 34
9 6 4 4 3 3 3 2 2 2 2 2 2 3 3 3 3 3 4 31 64 87 93 99 97 81 96 98 99 88 78 68 62 57 51 44 36 29 25 22 22 25 30 32 33
5 3 3 3 3 3 3 2 2 2 1 1 1 1 2 2 2 2 4 21 54 88 100 97 78 98 100 97 96 97 97 88 67 57 52 42 35 30 28 31 29 23 22 27 26
3 3 3 5 11 8 4 4 3 3 3 2 2 2 2 2 2 2 8 29 62 90 82 98 95 100 98 99 97 98 96 79 61 54 42 37 34 31 32 35 35 32 22 19 14
5 4 8 20 13 5 5 6 17 64 48 43 10 4 3 3 2 12 20 54 86 91 100 84 96 98 100 97 100 97 98 70 55 45 38 37 33 33 35 36 38 36 22 18 16
6 6 20 23 7 5 9 11 85 100 72 93 52 12 6 3 3 16 60 76 84 100 90 92 100 99 98 100 98 96 98 97 93 48 38 38 36 31 32 34 37 32 22 15 11
4 17 30 11 5 7 12 21 96 100 100 90 96 25 10 6 5 23 60 90 88 99 96 98 99 99 100 100 100 93 83 82 57 37 39 38 37 32 32 31 33 32 20 14 13
7 32 30 6 6 12 28 63 94 96 78 96 100 70 41 26 13 31 61 78 100 90 93 89 100 100 100 100 98 96 83 75 71 49 36 32 31 30 29 27 24 23 23 22 17
17 40 28 5 8 18 65 70 70 100 65 92 100 94 100 60 46 55 51 50 64 87 92 93 64 99 100 90 81 84 75 49 39 36 26 23 27 23 20 18 16 15 14 15 16
36 48 22 6 12 22 24 61 71 84 88 57 99 100 97 99 100 78 72 66 69 45 61 78 72 45 48 44 54 56 56 33 26 21 18 16 18 13 12 13 14 14 14 13 12
44 50 19 6 15 26 23 36 88 81 45 44 63 100 100 100 100 100 100 99 98 89 80 56 81 91 93 63 48 48 33 24 20 17 16 16 16 16 16 14 11 9 9 8 8
47 43 12 8 16 28 24 20 21 28 27 33 46 55 67 96 100 100 100 100 100 100 99 100 92 78 81 59 36 20 22 18 14 14 13 14 13 12 11 10 10 10 8 6 5
51 34 11 11 16 27 27 22 20 18 18 20 22 22 31 39 51 98 100 100 100 86 100 92 63 52 56 41 25 16 14 13 11 12 13 12 12 11 9 9 7 6 4 3 4
62 38 16 13 17 27 25 24 24 26 31 25 18 16 17 18 19 28 41 69 91 91 67 71 55 52 31 35 30 22 20 17 13 12 9 11 8 6 6 6 5 4 4 5 8
77 51 22 13 18 27 24 22 25 25 22 25 23 23 21 17 15 15 19 26 34 39 47 64 63 65 68 36 29 26 21 17 14 11 11 9 17 25 27 22 14 8 11 24 23
81 60 38 14 19 25 22 21 20 22 26 38 56 76 68 59 51 36 15 16 20 25 32 35 32 32 44 58 49 44 26 13 9 10 11 12 40 60 61 58 50 44 51 49 48
88 77 36 14 14 18 19 19 17 20 39 75 96 94 82 65 42 28 32 33 19 15 16 19 22 22 22 22 41 34 65 52 43 48 36 30 63 62 76 63 89 75 85 74 68
82 73 57 26 26 22 21 21 16 30 62 81 88 86 78 52 40 71 57 26 33 21 84 95 57 27 20 17 17 24 48 51 64 66 50 64 80 78 54 74 90 100 88 85 88

GFSSW_500_rhum_108.txt.gz
RH
34 33 34 34 33 31 30 25 22 29 32 34 36 33 31 33 37 36 46 47 56 52 48 54 45 42 37 32 33 32 23 18 18 21 25 24 26 22 17 13 12 12 15 16 15
31 28 28 29 30 28 25 22 21 18 20 24 26 32 35 42 39 44 52 54 57 59 58 59 58 49 42 36 33 33 28 28 27 28 32 26 26 17 16 12 11 12 12 14 15
38 32 28 24 24 24 23 21 19 18 18 19 17 18 21 29 36 46 53 60 65 64 66 66 64 57 49 44 40 38 36 38 33 33 34 28 21 20 16 14 14 15 14 15 18
39 35 30 27 24 23 22 20 20 20 22 22 21 18 16 14 15 30 58 65 65 68 69 74 72 66 60 56 54 49 49 48 38 35 31 29 28 21 17 19 23 18 16 20 21
37 33 29 26 24 24 23 25 26 26 25 22 21 19 20 15 14 23 31 47 70 74 73 74 74 78 69 67 68 60 58 53 48 47 41 34 29 26 22 19 30 25 23 23 23
38 31 28 26 26 26 27 26 27 25 23 22 24 21 18 11 21 23 25 34 50 67 77 74 86 85 81 71 69 69 68 61 58 58 54 46 39 33 29 28 36 32 32 30 30
37 35 32 32 34 33 28 27 24 23 23 23 23 20 15 13 16 17 21 26 33 52 71 80 80 89 77 82 69 69 69 66 58 54 62 57 46 42 36 36 36 37 32 31 29
41 39 38 35 30 28 27 24 22 19 18 16 16 17 15 17 19 12 11 18 23 33 54 84 86 81 88 84 73 71 68 68 62 56 53 53 38 45 40 36 36 40 37 34 33
44 31 21 20 22 24 21 16 13 12 10 8 6 5 8 11 20 16 6 8 7 10 30 84 88 89 86 92 87 72 67 68 68 62 59 54 48 50 44 46 45 43 44 42 37
25 22 22 25 22 17 12 11 9 8 7 6 5 4 5 4 3 8 9 5 4 4 13 43 87 88 80 85 71 86 82 80 66 69 66 57 50 49 48 44 43 43 45 44 44
21 21 26 20 15 12 10 7 6 5 4 2 2 2 2 2 2 2 3 4 4 4 4 25 62 70 67 88 94 99 94 84 89 79 73 61 54 52 48 44 42 41 41 40 42
20 25 22 14 8 7 5 4 3 3 2 2 1 2 1 2 1 1 2 2 4 3 4 12 18 65 100 100 100 96 97 90 98 90 94 80 60 57 52 46 44 40 35 30 26
27 22 16 7 5 4 4 4 5 3 2 11 32 21 11 5 2 3 3 2 3 4 3 5 34 78 97 99 98 95 84 99 98 99 95 91 68 62 58 49 45 39 31 27 27
19 17 8 5 4 5 9 8 4 3 17 58 99 83 67 10 8 18 18 12 11 7 15 27 34 30 80 89 100 96 100 100 97 95 91 93 71 65 56 50 44 37 30 31 35
16 13 6 5 4 12 11 5 4 37 47 80 100 100 96 16 13 20 14 8 7 15 29 32 40 70 95 100 99 93 99 100 97 87 96 89 79 67 56 45 40 36 34 34 36
16 8 6 4 13 14 6 6 24 54 56 72 100 88 96 24 8 8 7 7 25 60 98 83 70 67 98 99 99 100 98 98 99 99 86 84 80 65 50 42 38 38 37 36 35
14 8 5 11 18 11 6 9 40 49 60 81 100 100 93 100 16 10 15 26 51 75 100 100 92 84 100 100 99 99 100 100 98 89 75 82 84 65 48 41 39 36 35 33 33
11 10 4 23 17 7 7 12 37 40 41 76 99 100 100 100 100 43 35 52 64 73 82 97 88 93 100 100 100 100 100 100 100 100 92 83 73 61 40 37 35 33 32 30 27
12 8 10 29 14 5 8 13 21 39 41 33 80 100 100 100 100 88 67 53 58 75 93 97 98 83 87 99 100 100 91 100 95 90 85 77 89 82 33 25 24 23 23 19 17
15 5 30 29 10 6 11 16 18 24 36 34 46 98 100 96 99 100 84 64 54 44 95 96 93 83 45 61 98 90 63 79 87 83 75 65 52 28 26 17 15 14 14 13 14
11 5 45 32 9 9 12 18 19 18 23 24 28 48 96 100 100 100 93 100 82 94 43 39 72 83 93 83 44 73 76 66 63 55 42 39 69 24 17 16 15 15 16 16 16
9 7 55 32 7 10 13 20 20 18 18 19 19 21 22 54 91 100 100 100 100 99 100 93 99 100 96 94 95 99 99 92 89 84 67 32 52 23 16 15 15 13 12 12 12
8 10 62 32 9 12 14 21 21 20 18 17 17 17 16 20 22 33 73 99 100 100 100 100 99 100 99 98 94 86 56 34 20 19 22 44 95 32 19 15 12 10 9 9 8
8 15 67 31 11 14 13 20 20 21 21 21 19 17 16 16 17 24 23 33 59 92 100 98 100 100 100 100 100 96 54 30 23 18 20 21 70 12 10 8 6 5 4 4 3
8 16 62 26 12 13 13 18 20 20 22 27 38 46 44 35 28 23 16 22 25 31 42 66 78 88 91 94 78 61 54 36 26 18 14 40 12 9 8 7 9 7 6 4 3
8 12 56 18 16 13 11 14 15 18 29 65 81 84 77 64 52 45 39 34 24 18 19 22 29 34 36 32 51 58 40 27 21 15 13 14 26 10 9 11 30 40 27 12 9
8 10 57 27 11 10 10 15 16 22 58 72 79 79 76 56 35 39 29 19 30 31 71 18 23 20 24 23 21 20 22 35 40 50 48 53 41 40 23 44 49 45 58 60 52

GFSSW_500_rhum_111.txt.gz
RH
46 42 40 34 30 28 25 22 24 26 26 24 21 20 20 26 28 27 28 36 46 48 48 45 45 41 37 36 38 39 29 21 26 28 28 36 20 23 37 28 19 17 20 10 10
42 42 45 42 39 36 33 28 24 20 18 17 17 17 17 16 18 25 21 35 46 53 60 57 54 51 40 39 40 38 37 28 36 42 41 33 26 28 23 27 25 18 16 13 12
40 40 37 41 42 38 35 32 26 22 20 18 17 16 16 14 12 13 23 28 38 47 60 62 66 59 47 43 41 42 31 45 40 38 40 39 37 28 25 22 27 21 19 12 12
46 46 47 46 42 38 35 31 28 26 23 20 19 16 16 14 15 12 16 21 28 34 45 60 64 66 58 52 55 45 41 42 47 43 35 38 39 35 29 25 29 22 18 11 18
48 51 53 49 44 39 36 34 32 29 26 22 19 17 16 14 14 19 13 16 19 21 24 37 57 66 60 65 67 48 50 49 46 52 46 45 38 34 30 27 25 27 19 16 22
54 56 52 46 41 38 36 32 30 26 24 21 19 17 16 12 13 13 13 14 16 21 22 25 46 68 68 66 68 69 64 56 54 51 56 51 41 32 31 29 26 30 25 23 25
61 55 49 45 42 37 33 30 26 23 20 17 14 13 13 12 12 12 12 13 13 15 16 20 26 42 61 69 70 70 66 63 54 59 58 66 54 44 41 41 35 35 31 29 27
63 56 52 45 39 34 29 25 22 19 17 15 13 12 10 9 8 8 10 10 12 15 19 18 20 24 42 69 73 78 78 64 54 62 66 73 66 61 61 51 45 41 40 36 30
62 55 49 42 35 30 26 23 19 16 14 12 10 9 8 7 7 7 7 8 7 10 15 13 12 20 34 53 82 72 58 66 72 81 72 69 62 70 87 72 53 46 42 36 30
63 56 48 38 36 31 28 21 16 13 11 8 7 5 4 4 4 3 3 3 6 4 5 12 9 10 19 33 31 32 82 98 89 99 93 69 61 71 83 80 53 49 44 40 34
64 50 46 41 33 31 23 18 14 11 7 5 3 2 2 2 2 1 1 1 2 3 4 5 6 9 16 18 34 86 100 97 95 99 91 74 68 69 71 84 71 52 48 46 47
55 51 50 38 34 26 21 15 12 8 6 3 2 1 2 5 6 14 9 2 2 2 2 3 3 16 6 16 36 89 100 80 94 99 93 84 71 72 72 77 78 58 46 48 50
54 51 45 37 28 23 16 12 9 6 3 2 5 43 48 40 38 26 13 85 31 81 9 3 3 6 8 12 28 74 88 71 100 99 82 86 81 81 75 78 77 65 49 50 49
54 48 39 32 23 19 13 10 5 3 2 5 47 75 44 73 21 8 13 100 83 100 100 35 3 8 10 16 31 61 84 100 99 96 77 99 87 100 96 87 83 67 55 54 51
59 40 37 28 21 14 10 4 3 3 13 22 59 58 94 81 15 100 45 65 92 100 100 100 96 30 7 12 22 54 100 96 96 96 98 100 90 86 100 89 96 85 64 61 55
44 39 34 22 17 10 5 3 4 18 84 32 72 49 78 100 30 42 73 66 43 73 96 100 93 65 33 85 84 100 96 100 100 98 94 75 91 98 100 95 97 95 80 66 57
40 40 25 18 12 6 6 7 4 39 10 27 81 84 77 92 98 10 38 73 92 100 100 100 100 77 98 78 86 92 100 100 99 94 63 96 98 82 100 88 98 96 81 56 44
46 30 22 14 8 5 10 6 6 7 9 24 46 92 95 100 80 45 12 9 17 31 100 100 100 100 96 93 87 99 100 98 95 96 86 100 92 96 97 99 100 98 97 88 72
37 26 20 11 5 11 12 4 7 9 12 27 29 80 100 100 100 95 100 100 61 44 99 99 100 100 100 100 100 98 98 100 88 89 99 98 100 95 100 100 97 86 65 54 42
26 28 17 8 6 18 8 6 9 10 14 19 21 47 95 100 100 100 100 70 80 74 100 100 100 100 100 100 100 100 100 98 100 99 100 100 100 100 95 95 71 49 49 53 44
29 28 15 5 13 17 5 8 12 13 15 15 18 20 74 92 99 100 100 81 55 60 83 100 95 91 94 84 73 100 100 100 100 100 100 100 100 96 86 98 93 65 59 53 52
32 24 12 5 23 9 6 9 13 15 17 17 18 19 26 32 67 96 100 100 100 85 82 95 100 99 88 91 70 61 58 92 73 100 100 100 100 100 100 82 53 62 43 17 15
35 21 8 8 21 5 7 9 13 16 17 17 18 19 20 19 23 25 61 96 100 100 100 79 100 100 100 95 95 81 64 88 82 94 100 95 98 84 71 61 35 23 24 59 47
34 19 6 21 22 5 7 8 12 15 16 17 18 17 19 19 20 25 27 36 85 94 100 100 97 100 100 99 100 100 98 98 100 100 100 100 98 99 96 79 51 17 46 33 10
31 16 6 24 23 6 6 8 10 12 13 14 15 16 17 20 21 24 23 26 30 45 85 97 100 100 100 100 100 100 100 100 100 100 100 100 99 98 98 78 29 48 15 6 6
31 16 6 25 28 6 7 8 9 9 11 16 34 42 24 17 14 15 17 24 22 23 38 57 64 90 98 97 98 99 96 94 100 100 94 79 100 63 18 20 20 8 6 6 7
32 15 6 19 32 17 9 10 14 33 56 63 65 60 52 45 39 34 29 25 23 22 21 31 40 45 62 62 51 36 41 45 56 64 35 48 93 79 63 43 22 12 10 18 13

GFSSW_500_rhum_114.txt.gz
RH
58 54 49 44 43 42 39 36 33 33 32 28 24 23 20 18 19 21 18 21 23 28 29 32 34 40 41 41 43 43 34 18 20 25 30 33 48 64 48 24 32 31 26 21 20
52 47 44 42 38 34 32 30 31 30 31 32 31 27 22 19 18 17 15 17 22 28 31 30 37 46 39 40 50 49 35 25 34 32 31 38 40 82 53 22 33 38 25 14 20
50 45 42 42 40 35 32 36 36 35 31 30 30 28 25 21 20 16 18 15 16 15 16 27 32 42 36 46 50 57 24 44 39 40 43 37 40 65 50 48 29 39 24 17 15
54 54 56 53 50 44 46 49 47 43 38 33 32 32 31 27 22 19 17 16 16 16 18 19 26 32 37 39 56 62 37 52 51 54 44 44 42 43 44 33 54 36 31 19 15
69 62 63 62 56 52 48 46 41 37 34 29 26 26 26 22 22 21 18 17 15 14 14 16 19 23 21 41 61 47 52 58 58 63 58 49 40 41 40 42 36 38 37 20 14
75 71 68 68 62 59 50 44 38 34 31 29 27 26 23 20 19 18 17 16 15 14 13 13 14 20 17 18 27 48 64 60 67 53 56 60 48 42 33 46 42 34 30 27 24
90 82 79 76 71 62 50 43 37 36 34 28 25 22 19 17 15 15 14 12 11 10 10 12 12 13 15 19 17 21 51 61 51 37 54 68 56 35 42 47 48 42 33 32 28
82 79 80 81 68 58 48 44 41 34 27 22 20 18 15 13 12 11 10 8 8 8 8 8 9 11 12 14 16 21 39 34 17 62 65 88 35 48 56 57 53 49 40 34 30
88 87 86 82 66 58 48 41 33 28 24 19 16 14 12 10 9 8 6 6 5 4 4 5 7 8 10 12 15 16 14 11 34 88 84 97 36 67 70 68 67 69 54 44 44
93 93 89 77 63 53 45 37 32 26 19 16 13 10 7 7 6 5 3 3 3 3 2 2 3 6 8 10 9 6 8 16 19 60 100 100 49 67 78 85 74 87 68 55 51
100 99 86 69 61 53 41 34 27 20 17 12 8 6 4 4 3 2 2 2 2 2 2 3 2 2 4 6 6 13 15 20 22 46 99 98 72 86 98 82 75 77 92 82 61
100 95 80 71 62 53 37 29 22 18 13 9 6 5 4 3 2 6 11 14 10 6 10 12 19 2 2 5 5 10 7 17 45 65 100 93 91 79 90 57 68 85 81 82 67
97 89 76 62 58 51 34 27 19 14 10 7 5 4 3 4 15 14 34 48 30 7 10 18 35 16 3 4 6 6 10 12 20 95 93 89 92 84 76 66 72 79 79 84 85
95 81 68 60 58 42 30 23 17 12 8 5 6 5 11 20 19 53 40 39 21 69 100 86 97 56 33 6 40 7 7 18 87 100 91 93 87 86 72 76 77 76 73 74 67
87 77 59 63 52 37 29 22 17 11 6 11 4 7 24 34 44 55 39 69 100 92 83 100 100 100 100 16 28 37 84 95 100 100 72 94 81 57 88 94 86 90 98 98 82
75 71 71 55 45 35 27 21 14 7 8 10 4 22 24 39 71 75 35 36 82 100 100 96 67 96 97 95 68 93 100 100 96 74 94 64 99 55 77 86 97 98 92 99 95
89 81 67 53 42 32 25 16 9 5 4 3 5 37 56 64 66 100 39 60 75 100 98 100 88 84 81 100 97 100 100 100 90 66 22 68 97 63 95 96 96 98 98 93 84
81 68 62 49 36 28 19 11 6 4 3 4 8 42 64 64 90 71 13 72 92 96 84 96 100 72 82 91 98 87 67 36 49 42 42 95 76 58 99 95 100 100 96 89 69
70 63 56 38 32 23 11 7 4 3 3 4 15 30 48 77 93 99 96 42 68 79 82 100 100 98 99 100 100 98 79 99 100 93 89 85 87 96 98 99 100 99 93 99 100
63 61 46 35 27 16 8 5 3 3 5 8 17 23 23 62 100 99 100 53 69 30 16 89 90 73 100 98 99 99 98 98 100 100 100 98 100 100 98 97 99 100 100 100 96
61 59 40 32 21 9 8 4 3 5 7 11 14 15 18 28 89 100 100 80 46 59 19 76 100 59 53 94 99 100 100 100 100 100 100 100 100 95 100 98 98 100 100 94 76
58 50 40 29 14 9 11 4 4 6 8 12 15 17 18 18 26 86 67 100 64 54 64 60 78 100 92 99 97 100 100 100 100 100 100 99 97 88 96 100 100 87 80 77 95
62 46 37 24 7 10 10 4 5 6 9 13 16 17 19 20 21 52 28 62 94 93 85 83 98 94 95 81 84 90 88 100 100 100 91 94 88 80 100 100 99 68 78 95 94
70 47 35 20 7 18 7 4 6 5 7 11 14 29 17 19 22 30 27 25 27 82 91 94 100 100 100 100 95 100 95 99 100 96 100 99 95 98 99 87 72 91 74 45 55
69 36 31 14 11 19 5 4 5 5 5 6 9 15 18 18 19 17 16 24 21 29 41 87 100 100 99 100 100 99 87 84 93 95 99 99 100 87 90 89 100 100 93 46 45
79 38 28 10 14 21 7 4 4 8 34 47 48 46 40 36 32 32 28 31 28 16 14 20 77 96 99 100 100 100 100 100 72 89 91 100 94 78 100 100 100 98 17 18 7
80 36 27 10 9 25 23 24 30 38 45 49 48 46 45 45 43 36 29 28 26 26 21 17 22 44 81 96 100 98 100 100 100 100 100 97 86 100 99 92 72 32 27 13 9

GFSSW_500_rhum_117.txt.gz
RH
70 64 59 56 51 50 46 42 38 36 34 30 30 29 28 30 28 26 24 20 18 19 17 17 20 28 29 31 38 42 22 10 16 24 23 24 28 34 37 34 40 44 58 25 34
76 70 66 58 54 46 42 40 38 36 32 31 29 29 26 27 29 30 25 23 20 18 17 16 16 20 24 29 36 38 22 11 27 36 34 34 30 42 40 42 44 38 34 55 23
77 71 68 63 55 50 48 46 46 43 38 35 34 35 34 33 33 29 26 24 23 20 19 18 16 15 15 25 32 38 10 34 33 38 43 37 39 35 35 33 50 44 33 31 40
80 74 70 64 60 57 54 49 48 46 45 40 36 37 35 33 31 26 25 26 25 24 22 20 18 16 14 14 21 24 16 32 33 49 44 35 41 41 43 27 61 45 33 38 36
88 82 73 74 70 67 62 61 58 55 52 46 40 33 30 25 28 24 22 23 22 21 19 19 19 18 16 15 18 13 18 28 33 51 41 49 37 46 40 41 45 41 28 30 41
90 91 85 78 78 76 75 75 68 66 62 52 40 31 22 24 22 21 20 19 19 18 17 16 16 14 15 15 15 16 15 16 30 19 32 61 45 59 34 60 45 36 33 32 30
94 93 93 93 85 76 70 70 69 64 56 46 36 26 21 21 20 19 17 16 14 13 12 11 11 10 10 10 11 13 14 15 12 8 19 68 66 30 42 59 51 48 44 47 36
94 94 92 90 80 78 72 74 72 60 48 36 28 23 23 21 19 16 13 12 10 9 8 8 7 7 7 7 7 9 12 11 8 10 21 92 41 15 57 67 56 53 49 51 45
97 92 83 85 86 87 83 79 64 57 43 34 31 29 25 17 13 11 10 9 8 8 7 6 5 4 4 4 4 6 6 6 7 13 20 69 20 26 61 67 69 59 57 65 62
97 92 92 89 88 96 87 78 59 52 44 39 32 24 18 14 12 9 8 7 5 4 4 3 3 3 2 2 2 4 5 6 7 9 20 45 27 37 49 82 66 67 59 57 60
97 97 95 93 93 84 83 73 60 53 46 35 27 21 14 11 9 5 5 4 3 2 2 2 3 2 3 6 4 2 4 6 7 9 15 26 42 51 78 100 81 72 69 67 61
96 96 98 97 89 85 81 65 56 49 40 32 22 16 11 9 6 4 3 2 3 3 10 7 4 9 20 20 17 5 4 5 6 9 38 68 91 48 86 77 67 86 79 74 72
96 96 99 98 91 92 74 57 49 39 32 25 18 12 9 6 4 3 3 4 19 24 21 21 59 25 12 11 19 14 11 6 6 12 87 97 85 62 42 78 68 63 69 80 88
93 97 98 97 93 93 61 52 43 33 26 18 14 10 7 5 3 4 13 21 36 34 73 74 100 96 88 56 81 28 20 20 16 39 100 94 86 86 85 95 68 55 66 63 86
98 97 97 98 94 94 68 48 35 27 18 17 9 7 4 2 4 14 30 26 56 29 68 69 58 100 67 84 100 56 50 41 49 99 93 100 100 64 64 91 55 48 59 76 77
98 98 99 98 96 80 55 41 30 21 15 10 6 4 2 3 40 21 45 36 35 43 80 88 99 81 93 95 100 48 65 95 95 99 99 88 86 61 90 72 79 81 90 96 99
100 99 99 99 92 64 47 35 25 16 12 7 4 2 2 18 53 36 38 31 37 57 84 75 85 90 93 86 92 100 100 94 100 100 82 92 90 16 35 57 86 95 100 98 97
99 100 98 98 69 50 38 28 20 13 7 4 2 2 5 29 54 36 30 46 48 58 76 94 100 93 63 99 72 100 92 96 99 78 52 48 26 14 49 67 80 97 100 93 88
99 99 97 74 57 43 34 25 16 9 4 3 3 6 19 35 46 43 44 46 32 45 58 79 100 100 74 100 96 55 97 100 99 93 62 44 26 59 72 99 94 75 74 99 100
100 86 86 69 50 40 30 20 10 4 3 4 4 10 21 28 41 70 64 49 38 37 29 67 96 100 87 97 75 68 67 68 66 68 82 74 82 92 100 75 99 86 86 100 92
74 76 77 57 45 36 25 12 5 3 4 5 7 11 16 21 29 41 84 62 44 38 44 30 99 100 100 98 100 94 82 61 100 99 100 94 97 98 94 92 99 96 93 98 99
48 84 71 45 42 32 20 9 3 4 5 6 9 13 16 16 21 24 61 60 59 66 59 43 55 88 77 99 99 79 100 100 100 100 100 100 100 100 100 97 100 100 100 100 100
80 92 67 49 38 26 10 5 3 4 4 5 7 12 16 16 18 20 53 19 21 57 59 56 50 69 100 90 100 100 100 100 100 100 100 99 99 99 100 98 88 83 100 99 97
75 84 69 47 34 18 9 4 3 3 4 5 6 8 11 12 14 16 14 18 13 14 43 50 72 100 95 100 89 73 85 99 100 100 100 99 100 98 86 95 99 97 100 95 94
83 92 70 37 20 12 8 5 5 14 21 29 34 34 36 38 39 33 27 23 21 17 12 30 29 88 92 100 100 90 95 76 80 96 100 98 84 100 100 100 100 99 98 97 78
98 92 62 34 22 9 10 10 15 19 26 30 30 34 38 40 31 16 25 26 21 22 16 11 25 73 100 100 100 99 97 85 99 100 99 94 100 100 100 98 100 99 100 97 53
98 95 82 31 19 9 17 17 20 21 26 33 34 36 37 42 37 24 31 51 44 33 23 21 17 24 48 99 97 100 95 98 98 95 89 87 100 100 100 100 100 98 100 94 44